HORIZONS-2

Last updated on Sun Dec 07 2025 00:02:46 GMT+0000 (Coordinated Universal Time)

1 32388U 07063B 25340.46488583 -.00000247 00000+0 00000+0 0 9992 2 32388 2.1044 83.0266 0005078 184.0397 262.0182 1.00271167 65887
UTC large
Height (km)
Speed (km/s)
/
Latitude / Longitude
Inclination (degrees)
Orbital Period (minutes)
Azimuth
Elevation
Range (km)
Doppler Factor

Next 0 passes for location: London (51.5072 / 0.1276)

Sorry there are no passes over London.